Flag for Switzerland Weather past 2 weeks in Buchs, St. Gallen, Switzerland

Now
76 °F

Scattered clouds.


Feels Like: 78 °F
Forecast: 64 / 92 °F
Wind: 6 mph from Southeast

Location: Vaduz

Current Time: Aug 28, 2015 at 12:22:37 PM

Latest Report: Aug 28, 2015 at 11:00 AM


Visibility: 6 mi

Pressure: 30.05 "Hg

Humidity: 44%

Dew point: 53 °F

Location of BuchsLocation

Historic Weather in Buchs — Graph

°F

Buchs temperature yesterday

Maximum temperature yesterday: 87 °F (at 3:00 PM)
Minimum temperature yesterday: 63 °F (at 12:00 AM)
Average temperature yesterday: 74 °F

Past Weeks' High & Low Weather Summary

 TemperatureHumidityPressure
High88 °F (Aug 13, 4:00 PM)97% (Aug 20, 2:00 AM)30.28 "Hg (Aug 20, 2:00 AM)
Low54 °F (Aug 22, 12:00 AM)31% (Aug 27, 2:00 PM)29.67 "Hg (Aug 24, 11:00 AM)
Average65 °F73%29.97 "Hg
* Reported Aug 13 10:00 AM — Aug 28 10:00 AM, Buchs, Weather by CustomWeather, © 2015

Note: Actual official high and low records may vary slightly from our data, if they occured in-between our weather recording intervals... More about our weather records

Advertising

Buchs weather history for previous 24 hours

 ConditionsComfort  
Time TempWeatherWind HumidityBarometerVisibility
10:00 AM
Fri, Aug 28
73 °FMild.3 mph48%30.06 "HgN/A
9:00 AM71 °FMild.5 mph51%30.06 "HgN/A
8:00 AM69 °FScattered clouds.5 mph52%30.05 "Hg5 mi
7:00 AM68 °FMild.5 mph56%30.03 "HgN/A
4:00 AM74 °FMild.8 mph41%29.97 "HgN/A
3:00 AM73 °FMild.7 mph43%29.96 "HgN/A
2:00 AM76 °FFog.8 mph38%29.94 "Hg6 mi
1:00 AM77 °FPleasantly warm.6 mph36%29.93 "HgN/A
10:00 PM
Thu, Aug 27
72 °FMild.2 mph55%29.91 "HgN/A
9:00 PM71 °FMild.3 mph68%29.90 "HgN/A
8:00 PM72 °FFog.1 mph71%29.88 "Hg6 mi
7:00 PM79 °FWarm.No wind61%29.85 "HgN/A
6:00 PM81 °FWarm.3 mph53%29.84 "HgN/A
5:00 PM83 °FPassing clouds.5 mph44%29.83 "Hg9 mi
4:00 PM85 °FWarm.5 mph41%29.83 "HgN/A
3:00 PM87 °FPleasantly warm.2 mph33%29.83 "HgN/A
2:00 PM85 °FPassing clouds.1 mph31%29.86 "Hg9 mi
1:00 PM83 °FPleasantly warm.5 mph38%29.88 "HgN/A
12:00 PM79 °FPleasantly warm.5 mph38%29.91 "HgN/A
Weather by CustomWeather, © 2015

See weather overviewHow to use our weather pages